Lake Sonoma Weather Center

Moon Phase Calendar



Lake Sonoma Water Level
Online Cameras

 


      

Current Conditions in Cloverdale
2/7/2023 11:02:22 AM

51°F
Feels Like 49
Clouds
Humidity
71%
Pressure
30.42"
Wind
5 mph (W)
Dew Point
42°F
UV Index
2/10 (Low)
Visibility
6 mi

Hourly Forecast

Date & Time Tue, Feb 7
11:00 AM
Tue, Feb 7
12:00 PM
Tue, Feb 7
1:00 PM
Tue, Feb 7
2:00 PM
Tue, Feb 7
3:00 PM
Tue, Feb 7
4:00 PM
Tue, Feb 7
5:00 PM
Tue, Feb 7
6:00 PM
Tue, Feb 7
7:00 PM
Tue, Feb 7
8:00 PM
Tue, Feb 7
9:00 PM
Tue, Feb 7
10:00 PM
Tue, Feb 7
11:00 PM
Wed, Feb 8
12:00 AM
Wed, Feb 8
1:00 AM
Wed, Feb 8
2:00 AM
Wed, Feb 8
3:00 AM
Wed, Feb 8
4:00 AM
Wed, Feb 8
5:00 AM
Wed, Feb 8
6:00 AM
Wed, Feb 8
7:00 AM
Wed, Feb 8
8:00 AM
Wed, Feb 8
9:00 AM
Wed, Feb 8
10:00 AM
Wed, Feb 8
11:00 AM
Wed, Feb 8
12:00 PM
Wed, Feb 8
1:00 PM
Wed, Feb 8
2:00 PM
Wed, Feb 8
3:00 PM
Wed, Feb 8
4:00 PM
Wed, Feb 8
5:00 PM
Wed, Feb 8
6:00 PM
Wed, Feb 8
7:00 PM
Wed, Feb 8
8:00 PM
Wed, Feb 8
9:00 PM
Wed, Feb 8
10:00 PM
Wed, Feb 8
11:00 PM
Thu, Feb 9
12:00 AM
Thu, Feb 9
1:00 AM
Thu, Feb 9
2:00 AM
Thu, Feb 9
3:00 AM
Thu, Feb 9
4:00 AM
Thu, Feb 9
5:00 AM
Thu, Feb 9
6:00 AM
Thu, Feb 9
7:00 AM
Thu, Feb 9
8:00 AM
Thu, Feb 9
9:00 AM
Thu, Feb 9
10:00 AM
Condition
Clouds

Clouds

Clouds

Clouds

Clouds

Clouds

Clear

Clear

Clear

Clear

Clear

Clear

Clear

Clear

Clear

Clear

Clear

Clear

Clouds

Clouds

Clouds

Clouds

Clouds

Clouds

Clouds

Clouds

Clouds

Clouds

Clouds

Clouds

Clear

Clear

Clear

Clear

Clear

Clear

Clear

Clear

Clear

Clouds

Clouds

Clouds

Clouds

Clouds

Clouds

Clouds

Clouds

Clouds
Temperature 51°F52°F54°F56°F59°F60°F54°F48°F45°F44°F43°F43°F43°F42°F42°F42°F41°F41°F40°F40°F40°F42°F49°F53°F58°F61°F63°F63°F64°F63°F57°F51°F49°F48°F47°F47°F46°F46°F46°F46°F46°F46°F46°F46°F45°F47°F53°F58°F
Feels Like 49°F50°F52°F54°F57°F58°F53°F47°F43°F41°F40°F40°F40°F39°F39°F39°F38°F38°F37°F38°F38°F40°F49°F51°F56°F59°F61°F61°F62°F61°F55°F49°F49°F48°F47°F46°F45°F45°F45°F45°F45°F46°F46°F46°F45°F47°F51°F56°F
Cloudiness 100%100%100%100%98%94%0%0%0%0%0%0%0%0%3%9%10%10%21%49%63%52%61%67%94%62%46%39%48%43%6%6%6%6%6%6%9%9%8%12%29%41%100%100%100%100%87%73%
Visibility 6 mi6 mi6 mi6 mi6 mi6 mi6 mi6 mi6 mi6 mi6 mi6 mi6 mi6 mi6 mi6 mi6 mi6 mi6 mi6 mi6 mi6 mi6 mi6 mi6 mi6 mi6 mi6 mi6 mi6 mi6 mi6 mi6 mi6 mi6 mi6 mi6 mi6 mi6 mi6 mi6 mi6 mi6 mi6 mi6 mi6 mi6 mi6 mi
Precipitation 0%0%0%0%0%0%0%0%0%0%0%0%0%0%0%0%0%0%0%0%0%0%0%0%0%0%0%0%0%0%0%0%0%0%0%0%0%0%0%0%0%0%0%0%0%0%0%0%
Humidity 71%67%63%60%55%62%75%84%85%87%89%90%90%90%90%89%89%88%87%86%84%79%67%58%50%45%42%41%44%57%66%71%72%72%71%71%70%69%68%68%67%64%64%63%63%65%59%53%
Dew Point 42°F41°F42°F42°F42°F45°F45°F42°F40°F39°F39°F39°F39°F38°F38°F37°F37°F36°F36°F35°F34°F35°F37°F38°F38°F38°F38°F38°F40°F46°F44°F40°F39°F38°F37°F36°F36°F35°F35°F35°F34°F34°F33°F33°F32°F34°F38°F40°F
Pressure 30.42"30.42"30.39"30.36"30.33"30.3"30.33"30.36"30.39"30.39"30.39"30.39"30.39"30.39"30.39"30.39"30.36"30.36"30.36"30.36"30.39"30.39"30.39"30.39"30.36"30.36"30.33"30.3"30.3"30.27"30.27"30.3"30.33"30.33"30.33"30.33"30.33"30.33"30.3"30.3"30.3"30.27"30.27"30.27"30.3"30.3"30.3"30.3"
Wind Speed 2.6 mph2.9 mph1.2 mph3.2 mph1.5 mph2.1 mph1.2 mph3.4 mph4.7 mph5.2 mph5.2 mph4.7 mph4.5 mph5 mph4.2 mph4.9 mph4.6 mph4.7 mph4.5 mph4 mph4 mph3.9 mph2.6 mph1.9 mph1.6 mph2.1 mph2.8 mph3.2 mph3 mph2.5 mph2 mph2.8 mph3 mph2.9 mph3 mph3.1 mph3.4 mph3.6 mph3.7 mph3.3 mph3.1 mph3 mph2.7 mph2.5 mph2.3 mph2.2 mph1.2 mph1.8 mph
Wind
Direction
352°
N
344°
NNW

N
268°
W
286°
WNW
271°
W
286°
WNW
320°
NW
340°
NNW
348°
NNW
354°
N
359°
N

N
358°
N
358°
N

N
348°
NNW
357°
N
356°
N

N

N
360°
N

N
17°
NNE
325°
NW
315°
NW
311°
NW
303°
WNW
301°
WNW
303°
WNW
308°
NW
353°
N
13°
NNE
25°
NNE
27°
NNE
21°
NNE

N

N
10°
N
13°
NNE
17°
NNE
26°
NNE
18°
NNE
31°
NNE
12°
NNE
26°
NNE

N
304°
NW

Daily Forecast

Date High Low Precip. Humidity
Today
Feb 7

Clouds
60 °F
41 °F
0%
67%
Wednesday
Feb 8

Clouds
64 °F
40 °F
0%
45%
Thursday
Feb 9

Clear
65 °F
43 °F
0%
47%
Friday
Feb 10

Rain
52 °F
41 °F
33%
71%
Saturday
Feb 11

Rain
58 °F
38 °F
51%
58%
Sunday
Feb 12

Clear
67 °F
40 °F
0%
34%
Monday
Feb 13

Clear
67 °F
42 °F
0%
42%
Tuesday
Feb 14

Rain
46 °F
35 °F
60%
50%
Wednesday
Feb 15

Clear
53 °F
31 °F
4%
30%
Thursday
Feb 16

Clear
54 °F
33 °F
0%
31%
Friday
Feb 17

Rain
50 °F
35 °F
100%
43%
Saturday
Feb 18

Snow
55 °F
36 °F
100%
57%
Sunday
Feb 19

Clouds
60 °F
35 °F
0%
49%
Monday
Feb 20

Clear
65 °F
39 °F
0%
35%
Tuesday
Feb 21

Clouds
64 °F
42 °F
0%
46%
Wednesday
Feb 22

Clouds
62 °F
42 °F
0%
37%

Temperature 8-14 Day Outlook



Precipitation 8-14 Day Outlook






About Us
Contact Us
Site Map
Search Site
Advertise With Us
   
Sonoma.USLakes.info
THE LAKE SONOMA WEBSITE

Copyright 2023, Lakes Online
Privacy    |    Legal